Regional Weather Roundup
Issued by NWS

Home | Current Version | Previous Version | Graphics & Text | Print | Product List | Glossary Off
Versions: 1 2 3 4 5 6 7 8 9 10 11 12 13 14 15 16 17 18 19 20 21 22 23 24 25 26 27 28 29 30 31 32 33 34 35 36 37 38 39 40 41 42 43 44 45 46 47 48 49 50

000
ASUS43 KLSX 240407
RWRMO

WEATHER SUMMARY FOR MISSOURI
NATIONAL WEATHER SERVICE SPRINGFIELD MO
1100 PM CDT WED APR 23 2014

NOTE: "FAIR" INDICATES FEW OR NO CLOUDS BELOW 12,000 FEET WITH NO
       SIGNIFICANT WEATHER AND/OR OBSTRUCTIONS TO VISIBILITY.
       CURRENT SKY AND/OR WEATHER CONDITIONS ARE NOT AVAILABLE FOR
       CHILLICOTHE AND FARMINGTON.

MOZ001>031-035>038-043-044-053-054-240500-
...NORTHERN AND WESTERN MISSOURI...

CITY           SKY/WX    TMP DP  RH WIND       PRES   REMARKS
KANSAS CTY INT CLOUDY    70  39  32 SE22      29.71R
KANSAS C DTWN  MOCLDY    72  40  31 SE16G24   29.70S
LEE`S SUMMIT   CLOUDY    70  39  32 S13G23    29.74R
ST JOSEPH      CLOUDY    64  40  41 SE18      29.68F
CHILLICOTHE      N/A     57  39  51 SE9       29.79R
KIRKSVILLE     CLEAR     53  34  48 SE16      29.83F

$$
MOZ066>068-077>081-088>096-101>105-240500-
...SOUTHWEST MISSOURI...

CITY           SKY/WX    TMP DP  RH WIND       PRES   REMARKS
SPRINGFIELD    MOCLDY    65  43  44 SE17      29.83S
JOPLIN         MOCLDY    70  48  45 SE14      29.78F

$$
MOZ032>034-039>042-045>050-055>058-069>072-240500-
...CENTRAL MISSOURI...

CITY           SKY/WX    TMP DP  RH WIND       PRES   REMARKS
COLUMBIA       CLEAR     57  37  47 SE16G24   29.85S
JEFFERSON CITY CLEAR     59  38  45 SE9       29.86S
ROLLA          CLEAR     62  34  35 SE14      29.88R
SEDALIA        MOCLDY    61  40  45 SE17      29.79F
WHITEMAN AFB   MOCLDY    62  34  35 SE13      29.75F
OSAGE BEACH    PTCLDY    66  36  32 S9G17     29.87S

$$
MOZ051-052-059>065-240500-
...EAST CENTRAL MISSOURI...

CITY           SKY/WX    TMP DP  RH WIND       PRES   REMARKS
ST LOUIS INTL  PTCLDY    58  36  43 SE13      29.95F
SPIRIT OF STL  CLEAR     57  34  41 SE8       29.93F
ST CHARLES     CLEAR     53  36  52 E10       29.94F

$$
MOZ072>076-082>087-097>100-106>115-240500-
...SOUTH CENTRAL AND SOUTHEAST MISSOURI...

CITY           SKY/WX    TMP DP  RH WIND       PRES   REMARKS
CAPE GIRARDEAU CLEAR     56  40  55 E6        29.97F
FARMINGTON     CLEAR     54  36  50 E6        29.98S
POPLAR BLUFF   CLEAR     58  40  51 E3        29.95F
WEST PLAINS    PTCLDY    60  36  40 SE9       29.94S

$$



USA.gov is the U.S. government's official web portal to all federal, state and local government web resources and services.